Northeast Philadelphia, PA

2:53 AM EDT on October 15, 2019 (GMT -0400)
Northeast Philadelphia

Weather History for KPNE - August, 2019

Change the Weather History Date:

Monday, August 26, 2019

  Actual Average Record
Temperature  
Mean Temperature 68 °F -  
Max Temperature 75 °F 81 °F 93 °F (2016)
Min Temperature 61 °F 64 °F 57 °F (1997)
Cooling Degree Days 3    
Growing Degree Days 18 (Base 50)    
Moisture  
Dew Point 55 °F    
Average Humidity 68    
Maximum Humidity 83    
Minimum Humidity 41    
Precipitation  
Precipitation 0.00 in - - ()
Sea Level Pressure  
Sea Level Pressure 30.20 in    
Wind  
Wind Speed 7 mph ()    
Max Wind Speed 12 mph    
Max Gust Speed 18 mph    
Visibility 10.0 miles    
Events      
Averages and records for this station are not official NWS values.
T = Trace of Precipitation, MM = Missing Value Source: Averaged Metar Reports

Daily Weather History Graph

Daily Weather History Graph

Search for Another Location

Airport or City:

Astronomy

Aug. 26, 2019 Rise Set
Actual Time 6:21 AM EDT 7:41 PM EDT
Civil Twilight 5:53 AM EDT 8:09 PM EDT
Nautical Twilight 5:19 AM EDT 8:43 PM EDT
Astronomical Twilight 4:44 AM EDT 9:18 PM EDT
Moon 1:44 AM EDT (8/26) 5:02 PM EDT (8/26)
Length of Visible Light 14h 15m
Length of Day
13h 19m
Waning Crescent, 19% of the Moon is Illuminated
Aug 26
Waning Crescent
Aug 30
New
Sep 5
First Quarter
Sep 14
Full
Sep 21
Last Quarter

Hourly Weather History & Observations

Time (EDT) Temp. Dew Point Humidity Pressure Visibility Wind Dir Wind Speed Gust Speed Precip Events Conditions
12:54 AM 64.0 °F 57.9 °F 80% 30.22 in 10.0 mi NE 6.9 mph - N/A   Clear
1:54 AM 63.0 °F 55.9 °F 78% 30.21 in 10.0 mi NNE 5.8 mph - N/A   Clear
2:54 AM 63.0 °F 57.0 °F 81% 30.20 in 10.0 mi NNE 5.8 mph - N/A   Clear
3:54 AM 61.0 °F 55.9 °F 83% 30.21 in 10.0 mi NE 4.6 mph - N/A   Clear
4:54 AM 61.0 °F 55.0 °F 81% 30.22 in 10.0 mi NE 5.8 mph - N/A   Clear
5:54 AM 61.0 °F 55.0 °F 81% 30.22 in 10.0 mi NNE 9.2 mph - N/A   Mostly Cloudy
6:03 AM 61.0 °F 54.0 °F 78% 30.22 in 10.0 mi NNE 10.4 mph - N/A   Scattered Clouds
6:32 AM 61.0 °F 53.1 °F 75% 30.23 in 10.0 mi NNE 10.4 mph - N/A   Mostly Cloudy
6:54 AM 61.0 °F 53.1 °F 75% 30.23 in 10.0 mi NNE 11.5 mph - N/A   Partly Cloudy
7:54 AM 63.0 °F 55.0 °F 75% 30.23 in 10.0 mi NE 10.4 mph 18.4 mph N/A   Clear
8:16 AM 64.0 °F 55.0 °F 73% 30.23 in 10.0 mi NE 10.4 mph - N/A   Mostly Cloudy
8:54 AM 64.0 °F 55.0 °F 73% 30.24 in 10.0 mi NNE 10.4 mph - N/A   Overcast
9:54 AM 66.0 °F 55.9 °F 70% 30.24 in 10.0 mi NNE 9.2 mph - N/A   Overcast
10:54 AM 66.9 °F 55.0 °F 66% 30.24 in 10.0 mi ENE 10.4 mph - N/A   Overcast
11:54 AM 68.0 °F 55.9 °F 65% 30.24 in 10.0 mi ENE 8.1 mph - N/A   Overcast
12:54 PM 71.1 °F 55.9 °F 59% 30.22 in 10.0 mi Variable 4.6 mph - N/A   Overcast
1:38 PM 71.1 °F 55.9 °F 59% 30.21 in 10.0 mi Variable 5.8 mph - N/A   Overcast
1:54 PM 71.1 °F 55.9 °F 59% 30.21 in 10.0 mi East 11.5 mph - N/A   Overcast
2:54 PM 73.0 °F 57.0 °F 57% 30.19 in 10.0 mi East 11.5 mph - N/A   Partly Cloudy
3:54 PM 75.0 °F 55.9 °F 51% 30.17 in 10.0 mi ENE 10.4 mph - N/A   Clear
4:54 PM 75.0 °F 55.0 °F 50% 30.16 in 10.0 mi ENE 6.9 mph - N/A   Clear
5:54 PM 75.0 °F 50.0 °F 41% 30.15 in 10.0 mi East 10.4 mph - N/A   Clear
6:54 PM 72.0 °F 52.0 °F 49% 30.14 in 10.0 mi East 11.5 mph - N/A   Clear
7:54 PM 69.1 °F 53.1 °F 57% 30.14 in 10.0 mi ESE 9.2 mph - N/A   Clear
8:54 PM 66.9 °F 54.0 °F 63% 30.17 in 10.0 mi ESE 4.6 mph - N/A   Clear
9:54 PM 66.9 °F 55.0 °F 66% 30.17 in 10.0 mi East 4.6 mph - N/A   Clear
10:54 PM 64.0 °F 55.9 °F 75% 30.17 in 10.0 mi Calm Calm - N/A   Clear
11:54 PM 62.1 °F 55.9 °F 80% 30.17 in 10.0 mi Calm Calm - N/A   Clear